Retour au catalogue

STARLINK-3128

ActifCommunicationsVLEO
NORAD 49441·PAYLOAD·🇺🇸 United States

Lancé Nov 13, 2021 depuis Cape Canaveral Space Force Station

Loading…

Prochains Passages (prochaines 24 heures)

TLE

FraisSource: CelesTrak SupGP

Époque: Sep 14, 2026, 21:39 UTC

1 49441C 21104AK  26257.90256944  .00045772  00000+0  13527-2 0  2572
2 49441  53.1586  64.2361 0001277  81.4666 260.6337 15.34358363    11

Suivez STARLINK-3128 en temps réel avec AllMySat

Download on the App Store